Miscellaneous Local Product
Issued by NWS North Platte, NE

Home | Current Version | Previous Version | Graphics & Text | Print | Product List | Glossary On
Versions: 1 2 3 4 5 6 7 8 9 10 11 12 13 14 15 16 17 18 19 20 21 22 23 24 25 26 27 28 29 30 31 32 33 34 35 36 37 38 39 40 41 42 43 44 45 46 47 48 49 50
000
AXUS43 KLBF 310510
MISLBF


WESTERN AND NORTH CENTRAL NEBRASKA HOURLY WEATHER ROUNDUP
NATIONAL WEATHER SERVICE NORTH PLATTE NE
1100 PM CST FRI JAN 30 2015

***STATIONS NOT REPORTING VARIABLES SUCH AS SKY/WEATHER OR
PRESSURE ARE PROVIDED BY THE NEBRASKA DEPARTMENT OF
ROADS...RAWS...AND APRS NETWORKS...AND ARE NOT UNDER
NATIONAL WEATHER SERVICE QUALITY CONTROL***

...OBSERVATIONS IN AND NEAR THE EASTERN PANHANDLE OF NEBRASKA...

CITY           SKY/WX    TMP DP  RH WIND       PRES   REMARKS
PINE RIDGE     CLOUDY    26  21  81 CALM      30.10F
CHADRON        CLOUDY    28  24  85 W5        30.10F WCI  23
ALLIANCE       CLOUDY    31  26  82 CALM      30.06F
SIDNEY         CLOUDY    33  26  75 NW6       30.06S WCI  28
WHITECLAY        N/A     26  22  84 CALM        N/A
CRESCENT LAKE    N/A     35  28  75 MISG        N/A
LISCO            N/A     37  26  65 N6          N/A  WCI  32
LEWELLEN         N/A     38  32  79 E5          N/A  WCI  34
$$

...OBSERVATIONS IN NORTH CENTRAL NEBRASKA...

CITY           SKY/WX    TMP DP  RH WIND       PRES   REMARKS
VALENTINE      CLOUDY    31  26  82 CALM      30.10F
THEDFORD       CLOUDY    38  32  78 S5        30.11F WCI  34
AINSWORTH      CLOUDY    36  28  73 SW7       30.10F WCI  30
O`NEILL        CLOUDY    34  28  78 S7        30.14F WCI  28
ORD            CLOUDY    41  30  65 S14       30.16F
BROKEN BOW     CLOUDY    39  31  72 S10       30.15F WCI  32
BROWNLEE         N/A     36  28  73 S9          N/A  WCI  29
VALENTINE NWR    N/A     33  26  75 CALM        N/A
SPRINGVIEW       N/A     29  24  80 CALM        N/A
HALSEY           N/A     38  30  73 S7          N/A  WCI  33
BREWSTER         N/A     38  31  75 S5          N/A  WCI  34
ROSE             N/A     37  31  81 SE7         N/A  WCI  31
NEWPORT          N/A     37  30  75 S8          N/A  WCI  31
SARGENT          N/A     40  32  74 CALM        N/A
COMSTOCK         N/A     41  33  71 S13         N/A
EWING            N/A     35  29  79 SW3         N/A
$$

...OBSERVATIONS IN SOUTHWEST NEBRASKA AND FAR NORTHEAST COLORADO...

CITY           SKY/WX    TMP DP  RH WIND       PRES   REMARKS
WRAY           CLOUDY    37  33  86 S7        30.08F WCI  32
IMPERIAL       CLOUDY    37  31  78 S9        30.10S WCI  30
OGALLALA       CLOUDY    37  32  83 S5        30.10S WCI  33
NORTH PLATTE   CLOUDY    38  32  79 S12       30.13S WCI  30
MCCOOK         CLOUDY    36  34  92 S7        30.16F WCI  30
LEXINGTON      CLOUDY    38  33  82 S10       30.18F WCI  31
BRADY            N/A     37  31  79 CALM        N/A
GOTHENBURG       N/A     37  32  81 S8          N/A  WCI  31
CALLAWAY         N/A     36  31  83 S14         N/A  WCI  27
$$

...NORTH PLATTE AREA...

CITY           SKY/WX    TMP DP  RH WIND       PRES   REMARKS
AIRPORT        CLOUDY    38  32  79 S12       30.13S WCI  30
DOWNTOWN         N/A     38  33  82 S5          N/A  WCI  34
$$

...SOME WEATHER OBSERVATIONS FROM AROUND THE REGION...

CITY           SKY/WX    TMP DP  RH WIND       PRES   REMARKS
DENVER         CLOUDY    37  26  64 N8        30.05F WCI  31
LARAMIE        CLOUDY    30  21  69 E5        30.03F WCI  25
CHEYENNE       CLOUDY    33  22  63 N9        30.05F WCI  25
SCOTTSBLUFF    CLOUDY    36  27  69 NW6       30.07F WCI  31
RAPID CITY     MOCLDY    29  22  75 N9        30.11F WCI  20
PIERRE         CLEAR     27  22  81 CALM      30.12F
WINNER         FAIR      36  24  62 W3        30.12F
SIOUX FALLS    CLEAR     32  26  78 SW6       30.13F WCI  26
OMAHA          CLOUDY    32  25  75 S8        30.26F WCI  25
GRAND ISLAND   CLOUDY    40  32  73 SW21      30.22S WCI  30
KANSAS CITY    CLOUDY    33  23  66 S9        30.34F WCI  25
WICHITA        LGT RAIN  40  27  59 NE8       30.29F WCI  34
HAYS           CLOUDY    36  28  75 S10       30.23F WCI  28
LIBERAL        CLOUDY    36  30  80 SE12      30.22F WCI  27
GOODLAND       CLOUDY    33  32  96 S15       30.09F WCI  23
$$



USA.gov is the U.S. government's official web portal to all federal, state and local government web resources and services.